map of MZT home
MZT - Airport
Location
City:  Mazatlán, Sinaloa, México
Name:General Rafael Buelna International Airport
ICAO:MMMZ
IATA:MZT

Details
Type:Airport (Aerodrome, Airfield)
Use:Public/Civil, International (customs port of entry)
Latitude:23°09'41"N (23.161356)
Longitude:106°15'58"W (-106.266071)
Datum:WGS 1984
Elevation:38 ft (12 m)
Variation:7.24°E (WMM2015 magnetic declination)
-0.10° annual change
Runways:1
Longest:8858 × 197 ft (2700 × 60 m), paved

Time
Time Zone:UTC-7 (DST-6)
Local Time:

Weather
METAR:MMMZ 102244Z 26003KT 15SM SKC 28/20 A2992 RMK ISOL CI

Related Locations
Nearby:
Farthest:RRG: 11738 mi / 18891 km
Plaine Corail [Sir Gaëtan Duval Airport (Plaine Corail Airport)], Rodrigues Island, MU

Find:

   beyond  
but within

Other Information
Maps:
NOTAMs:
Links:
Sources:

  
  • flag of México
  • flag of Sinaloa
  

Sectional Chart

Flight Planning
at skyvector.com

Satellite Image

Google Maps Satellite view

 

Copyright © 2004-2018 Karl L. Swartz. All rights reserved.
The Great Circle Mapper name and logo are trademarks of the Great Circle Mapper.
All other trademarks mentioned herein belong to their respective owners.
Please see credits for attibutions and further copyright information.

  Follow gcmap on Facebook Follow gcmap on Twitter Follow gcmap on Google+ GCmap on LinkedIn

hCard Microformat

Geo Microformat